Location: *
(2.7500°S, 66.6833°W)
Time: 03:28:04
(UTC+00:00)

Cosmos 1953 Rocket - Pass Details

Date: 24 May 2024
Orbit: 602 x 630 km, 82.5° (Epoch: 23 June)

Event Time Altitude Azimuth Distance (km) Brightness Sun altitude
Rises 23:31:53 0° 359° (N) 2,880 7.3 -16.9°
Reaches altitude 10° 23:34:06 10° 360° (N) 1,982 6.4 -17.4°
Maximum altitude 23:38:29 79° 86° (E) 640 3.4 -18.4°
Enters shadow 23:41:36 19° 171° (S) 1,479 5.2 -19.2°
